Simultaneous Nadir Overpasses (SNOs) Predictions

Prediction of SNOs between METOP-A and TERRA Satellite Orbit:

Table of predicted SNOs for the next 14.0 days since TLE Epoch: 3/1/2014
Index Date (METOP-A) Time (METOP-A) Lat,Lon (METOP-A) SZA (METOP-A ) Date (TERRA) Time (TERRA) Lat,Lon (TERRA) SZA (TERRA ) Distance(km) Time Diff (sec)
1 03/01/2014 09:02:20 81.35, 92.59 91.38 03/01/2014 09:03:01 81.35, 92.50 91.39 1.58 41
2 03/01/2014 09:53:00 -81.35, -99.79 88.60 03/01/2014 09:52:28 -81.35, -99.97 88.64 3.01 32
3 03/04/2014 04:36:40 81.35, 158.86 90.31 03/04/2014 04:37:13 81.34, 158.73 90.31 2.35 33
4 03/04/2014 05:27:20 -81.35, -33.48 89.67 03/04/2014 05:26:39 -81.36, -33.33 89.67 2.55 41
5 03/07/2014 00:11:00 81.35,-134.55 89.26 03/07/2014 00:11:23 81.36,-134.53 89.28 0.89 23
6 03/07/2014 01:01:40 -81.35, 33.14 90.71 03/07/2014 01:00:50 -81.35, 33.06 90.75 1.47 50
7 03/09/2014 19:45:20 81.35, -68.06 88.20 03/09/2014 19:45:32 81.36, -68.04 88.21 0.90 12
8 03/09/2014 20:36:00 -81.35, 99.68 91.77 03/09/2014 20:34:59 -81.35, 99.57 91.81 1.80 61
9 03/12/2014 14:29:01 -81.34,-169.53 92.94 03/12/2014 14:30:14 -81.35,-169.40 92.89 2.22 73
10 03/12/2014 15:19:40 81.35, -1.65 87.12 03/12/2014 15:19:40 81.34, -1.80 87.10 2.50 0




NCC Satellite Simultaneous Nadir Overpasses (SNOs) Prediction Service
